Flag for New Zealand Weather past 2 weeks in Auckland, New Zealand

Now
57 °F

Passing clouds.


Feels Like: 53 °F
Forecast: 54 / 62 °F
Wind: 22 mph from Southwest

Location: Auckland Airport

Current Time: Sep 23, 2014 at 7:11:05 PM

Latest Report: Sep 23, 2014 at 6:30 PM


Visibility: N/A

Pressure: 30.07 "Hg

Humidity: 77%

Dew point: 50 °F

Location of AucklandLocation

Historic Weather in Auckland — Graph

°F

Auckland temperature yesterday

Maximum temperature yesterday: 57 °F (at 2:00 PM)
Minimum temperature yesterday: 46 °F (at 11:30 PM)
Average temperature yesterday: 53 °F

Past Weeks' High & Low Weather Summary

 TemperatureHumidityPressure
High64 °F (Sep 11, 3:00 PM)100% (Sep 9, 4:30 AM)30.36 "Hg (Sep 9, 4:30 AM)
Low41 °F (Sep 23, 5:30 AM)55% (Sep 22, 2:30 PM)29.45 "Hg (Sep 20, 9:30 PM)
Average55 °F83%29.92 "Hg
* Reported Sep 8 5:00 PM — Sep 23 5:30 PM, Auckland, Weather by CustomWeather, © 2014

Note: Actual official high and low records may vary slightly from our data, if they occured in-between our weather recording intervals... More about our weather records

Advertising

Auckland weather history for previous 24 hours

 ConditionsComfort  
Time TempWeatherWind HumidityBarometerVisibility
5:30 PM
Sep 23
57 °FPassing clouds.21 mph77%30.07 "HgN/A
5:00 PM57 °FOvercast.23 mph77%30.07 "HgN/A
4:30 PM57 °FOvercast.21 mph77%30.07 "HgN/A
4:00 PM57 °FOvercast.22 mph77%30.07 "HgN/A
3:30 PM57 °FOvercast.21 mph72%30.07 "HgN/A
3:00 PM57 °FOvercast.20 mph72%30.07 "HgN/A
2:30 PM57 °FPartly sunny.20 mph77%30.07 "HgN/A
2:00 PM59 °FOvercast.22 mph68%30.07 "HgN/A
1:30 PM59 °FPartly sunny.21 mph72%30.07 "HgN/A
1:00 PM61 °FPartly sunny.16 mph72%30.07 "HgN/A
12:30 PM59 °FPartly sunny.16 mph68%30.09 "HgN/A
12:00 PM59 °FPassing clouds.17 mph72%30.09 "HgN/A
11:30 AM57 °FScattered clouds.17 mph72%30.09 "HgN/A
11:00 AM57 °FScattered clouds.16 mph67%30.09 "HgN/A
10:30 AM57 °FPartly sunny.15 mph72%30.09 "HgN/A
10:00 AM57 °FPartly sunny.13 mph72%30.09 "HgN/A
9:30 AM55 °FPartly sunny.15 mph72%30.09 "HgN/A
9:00 AM52 °FScattered clouds.5 mph72%30.09 "HgN/A
8:30 AM50 °FPassing clouds.3 mph76%30.09 "HgN/A
8:00 AM48 °FCool.2 mph71%30.09 "HgN/A
7:30 AM45 °FQuite cool.No wind81%30.09 "HgN/A
7:00 AM41 °FQuite cool.2 mph87%30.09 "HgN/A
6:30 AM41 °FQuite cool.2 mph87%30.07 "HgN/A
6:00 AM41 °FPassing clouds.2 mph87%30.07 "HgN/A
5:30 AM41 °FPassing clouds.1 mph87%30.07 "HgN/A
5:00 AM43 °FPassing clouds.3 mph76%30.04 "HgN/A
4:30 AM43 °FQuite cool.5 mph76%30.04 "HgN/A
4:00 AM43 °FQuite cool.6 mph71%30.04 "HgN/A
3:30 AM45 °FQuite cool.8 mph71%30.01 "HgN/A
3:00 AM45 °FQuite cool.9 mph66%30.01 "HgN/A
2:30 AM45 °FQuite cool.9 mph66%30.01 "HgN/A
2:00 AM45 °FQuite cool.8 mph66%30.01 "HgN/A
1:30 AM46 °FCool.10 mph66%30.01 "HgN/A
1:00 AM46 °FCool.9 mph66%29.98 "HgN/A
12:30 AM45 °FQuite cool.7 mph71%29.98 "HgN/A
12:00 AM46 °FCool.10 mph66%29.95 "HgN/A
11:30 PM
Sep 22
46 °FCool.10 mph66%29.95 "HgN/A
11:00 PM48 °FCool.14 mph62%29.95 "HgN/A
10:30 PM48 °FCool.16 mph66%29.92 "HgN/A
10:00 PM50 °FPassing clouds.17 mph62%29.92 "HgN/A
9:30 PM52 °FPassing clouds.15 mph67%29.89 "HgN/A
9:00 PM52 °FPassing clouds.16 mph67%29.86 "HgN/A
8:30 PM52 °FCool.16 mph67%29.83 "HgN/A
8:00 PM52 °FCool.16 mph67%29.80 "HgN/A
7:30 PM52 °FCool.17 mph67%29.80 "HgN/A
7:00 PM52 °FCool.18 mph67%29.77 "HgN/A
Weather by CustomWeather, © 2014

See weather overviewHow to use our weather pages